DW9314 Locust Valley NY US current weather conditions

sailwx.info

Wind from 254

Air temperature 17.8° C
Dewpoint -4.8° C

Last reported at 2019-Jun-16 11:01 UTC.
Time now 2019-Jun-16 11:31 UTC

Location: N 40°53' W 073°36'.
View on Google Maps.

See reports from other nearby stations

  
Tides and Currents Weather Stations Pressure Air Temp Water Temp Dewpoint Dewpoint Depression Visibility Wind Speed Wind Dir Waves Ship Positions
date/time (UTC)wind fromknots sea level pressurealtimeterstation pressurevisibilityair tempwater tempwave heightnotes
2019-Jun-16 11:01 254 17.8
2019-Jun-16 10:45 246 17.8
2019-Jun-16 10:30 246 17.8
2019-Jun-16 10:16 246 17.8
2019-Jun-16 10:01 246 17.8
2019-Jun-16 09:46 246 17.8
2019-Jun-16 09:30 160 17.8
2019-Jun-16 09:15 160 17.8
2019-Jun-16 09:01 269 17.8
2019-Jun-16 08:46 269 17.2
2019-Jun-16 08:30 269 17.2
2019-Jun-16 08:16 269 17.2
2019-Jun-16 08:00 269 17.2
2019-Jun-16 07:45 269 17.2
2019-Jun-16 07:30 269 17.8
2019-Jun-16 07:15 269 17.8
2019-Jun-16 07:00 269 18.3
2019-Jun-16 06:45 269 18.3
2019-Jun-16 06:30 269 19.4
2019-Jun-16 06:15 269 20.0
2019-Jun-16 06:00 261 20.0
2019-Jun-16 05:45 209 20.6
2019-Jun-16 05:30 207 0 gusting 5 20.0
2019-Jun-16 05:16 217 20.0
2019-Jun-16 05:01 218 0 gusting 3 20.0
2019-Jun-16 04:46 182 20.6
2019-Jun-16 04:31 198 20.6
2019-Jun-16 04:16 193 0 gusting 6 20.6
2019-Jun-16 04:01 088 20.6
2019-Jun-16 03:46 232 20.6
2019-Jun-16 03:32 182 21.1
2019-Jun-16 03:16 207 0 gusting 3 21.1
2019-Jun-16 03:01 107 21.1
2019-Jun-16 02:46 226 21.1
2019-Jun-16 02:31 182 21.1
2019-Jun-16 02:16 184 20.6
2019-Jun-16 02:01 022 20.6
2019-Jun-16 01:46 203 20.6
2019-Jun-16 01:31 202 21.1
2019-Jun-16 01:16 218 21.1
2019-Jun-16 01:01 272 21.1
2019-Jun-16 00:46 126 21.7
2019-Jun-16 00:32 204 21.7
2019-Jun-16 00:15 198 21.7
2019-Jun-16 00:02 144 0 gusting 4 22.2
2019-Jun-15 23:46 188 22.2
2019-Jun-15 23:31 205 22.8
2019-Jun-15 23:16 173 0 gusting 5 22.8
2019-Jun-15 23:00 164 0 gusting 3 23.3
2019-Jun-15 22:45 172 23.9
2019-Jun-15 22:31 101 0 gusting 3 23.9
2019-Jun-15 22:16 151 0 gusting 4 23.9
2019-Jun-15 22:01 200 2 gusting 6 24.4
2019-Jun-15 21:46 213 0 gusting 8 25.0
2019-Jun-15 21:30 171 0 gusting 4 26.1
2019-Jun-15 21:16 189 26.7
2019-Jun-15 21:01 190 0 gusting 6 26.7
2019-Jun-15 20:46 170 0 gusting 4 27.8
2019-Jun-15 20:30 197 0 gusting 5 28.3
2019-Jun-15 20:15 173 1 gusting 5 28.3
2019-Jun-15 20:00 246 1 gusting 6 27.8
2019-Jun-15 19:46 214 28.3
2019-Jun-15 19:30 196 2 gusting 10 28.9
2019-Jun-15 19:16 045 1 gusting 7 28.3
2019-Jun-15 19:00 122 2 gusting 9 28.3
2019-Jun-15 18:45 034 0 gusting 3 29.4
2019-Jun-15 18:30 300 0 gusting 6 28.9
2019-Jun-15 18:15 117 0 gusting 6 28.9
2019-Jun-15 18:00 059 1 gusting 4 28.9
2019-Jun-15 17:45 258 1 gusting 7 28.3
2019-Jun-15 17:30 165 28.3
2019-Jun-15 17:15 080 0 gusting 4 28.3
2019-Jun-15 17:00 224 0 gusting 3 27.2
2019-Jun-15 16:45 036 0 gusting 6 26.7
2019-Jun-15 16:30 084 0 gusting 6 26.7
2019-Jun-15 16:15 234 1 gusting 6 27.2
2019-Jun-15 16:01 169 0 gusting 6 27.2
2019-Jun-15 15:47 030 0 gusting 5 27.2
2019-Jun-15 15:31 102 26.7
2019-Jun-15 15:16 288 0 gusting 7 25.6
2019-Jun-15 15:01 194 2 gusting 8 25.0
2019-Jun-15 14:47 248 0 gusting 7 25.0
2019-Jun-15 14:31 292 0 gusting 3 24.4
2019-Jun-15 14:16 180 0 gusting 5 24.4
2019-Jun-15 14:02 221 1 gusting 8 23.9
2019-Jun-15 13:46 109 22.8
2019-Jun-15 13:30 221 22.2
2019-Jun-15 13:15 198 0 gusting 4 21.1
2019-Jun-15 13:00 152 20.6
2019-Jun-15 12:45 248 19.4
2019-Jun-15 12:30 165 18.3
2019-Jun-15 12:15 279 17.8
2019-Jun-15 12:00 223 16.7
2019-Jun-15 11:46 193 16.1
2019-Jun-15 11:32 193 15.6
2019-Jun-15 11:16 193 15.0
2019-Jun-15 11:01 193 14.4
2019-Jun-15 10:46 193 13.9
2019-Jun-15 10:33 193 12.8
2019-Jun-15 10:16 193 12.8
2019-Jun-15 10:01 193 12.8
2019-Jun-15 09:46 193 12.8
2019-Jun-15 09:31 193 12.8
2019-Jun-15 09:16 193 13.3
2019-Jun-15 09:00 193 13.3
2019-Jun-15 08:46 193 13.9
2019-Jun-15 08:31 193 14.4
2019-Jun-15 08:15 193 14.4
2019-Jun-15 08:00 193 15.6
2019-Jun-15 07:45 193 16.1
2019-Jun-15 07:30 193 16.1
2019-Jun-15 07:15 187 16.1
2019-Jun-15 07:00 275 16.1
2019-Jun-15 06:45 286 15.6
2019-Jun-15 06:30 236 15.6
2019-Jun-15 06:16 257 15.0
2019-Jun-15 06:00 259 15.0
2019-Jun-15 05:45 263 14.4
2019-Jun-15 05:30 263 15.0
2019-Jun-15 05:15 263 15.0
2019-Jun-15 05:00 263 15.0
2019-Jun-15 04:45 263 15.6
2019-Jun-15 04:30 263 15.0
2019-Jun-15 04:17 263 15.6
2019-Jun-15 04:01 263 15.6
2019-Jun-15 03:46 263 15.6
2019-Jun-15 03:32 263 16.1
2019-Jun-15 03:16 263 16.7
2019-Jun-15 03:02 263 17.2
2019-Jun-15 02:46 263 18.3
2019-Jun-15 02:31 263 18.9
2019-Jun-15 02:16 263 18.9
2019-Jun-15 02:03 263 19.4
2019-Jun-15 01:46 263 20.0
2019-Jun-15 01:31 337 20.0
2019-Jun-15 01:16 346 20.0
2019-Jun-15 01:01 266 20.6
2019-Jun-15 00:46 328 20.6
2019-Jun-15 00:31 355 21.1
2019-Jun-15 00:16 261 0 gusting 4 21.1
2019-Jun-15 00:01 213 0 gusting 6 21.7
2019-Jun-14 23:45 343 21.7
2019-Jun-14 23:30 034 0 gusting 5 22.2
2019-Jun-14 23:15 193 0 gusting 8 22.2
2019-Jun-14 23:01 319 1 gusting 11 22.2
2019-Jun-14 22:45 269 2 gusting 15 22.8
2019-Jun-14 22:30 256 2 gusting 8 22.8
2019-Jun-14 22:15 023 0 gusting 13 22.8
2019-Jun-14 22:00 287 2 gusting 7 23.3
2019-Jun-14 21:45 232 0 gusting 6 23.3
2019-Jun-14 21:30 086 2 gusting 9 22.8
2019-Jun-14 21:16 195 22.8
2019-Jun-14 21:00 181 0 gusting 5 23.3
2019-Jun-14 20:45 244 2 gusting 11 22.8
2019-Jun-14 20:30 175 2 gusting 10 22.2
2019-Jun-14 20:15 178 0 gusting 8 22.8
2019-Jun-14 20:00 213 0 gusting 9 22.8
2019-Jun-14 19:45 201 1 gusting 7 22.2
2019-Jun-14 19:30 291 0 gusting 6 21.7
2019-Jun-14 19:15 319 0 gusting 8 20.6
2019-Jun-14 19:00 273 20.6
2019-Jun-14 18:45 041 0 gusting 6 20.6
2019-Jun-14 18:30 325 1 gusting 6 20.0
2019-Jun-14 18:17 345 2 gusting 9 20.6
2019-Jun-14 18:01 213 21.1
2019-Jun-14 17:48 183 1 gusting 6 21.1
2019-Jun-14 17:31 310 2 gusting 7 21.7
2019-Jun-14 17:16 197 1 gusting 11 20.6
2019-Jun-14 17:02 302 3 gusting 9 21.1
2019-Jun-14 16:46 179 2 gusting 7 21.1
2019-Jun-14 16:32 238 1 gusting 8 19.4
2019-Jun-14 16:16 139 19.4
2019-Jun-14 16:01 096 1 gusting 8 19.4
2019-Jun-14 15:46 236 2 gusting 8 20.0
2019-Jun-14 15:30 265 1 gusting 12 20.0
2019-Jun-14 15:16 119 1 gusting 7 20.0
2019-Jun-14 15:01 254 1 gusting 10 19.4
2019-Jun-14 14:46 012 0 gusting 14 18.9
2019-Jun-14 14:30 209 0 gusting 9 18.9
2019-Jun-14 14:15 212 2 gusting 11 18.3
2019-Jun-14 14:01 127 1 gusting 12 18.3
2019-Jun-14 13:47 030 1 gusting 14 18.3
2019-Jun-14 13:30 161 1 gusting 8 17.8
2019-Jun-14 13:16 005 2 gusting 13 17.2
2019-Jun-14 13:00 252 1 gusting 8 16.7
2019-Jun-14 12:45 346 0 gusting 6 16.7
2019-Jun-14 12:30 207 0 gusting 7 16.1
2019-Jun-14 12:16 265 2 gusting 9 15.0
2019-Jun-14 12:01 162 2 gusting 6 14.4
2019-Jun-14 11:46 299 2 gusting 9 14.4
2019-Jun-14 11:32 132 0 gusting 6 14.4
2019-Jun-14 11:16 254 14.4
2019-Jun-14 11:01 182 0 gusting 3 14.4